Regional Weather Roundup
Issued by NWS Pendleton, OR

Home | Current Version | Previous Version | Text Only | Print | Product List | Glossary On
Versions: 1 2 3 4 5 6 7 8 9 10 11 12 13 14 15 16 17 18 19 20 21 22 23 24 25 26 27 28 29 30 31 32 33 34 35 36 37 38 39 40 41 42 43 44 45 46 47 48 49 50
729
ASUS46 KPDT 252110
RWRPDT
PENDLETON REGIONAL WEATHER ROUNDUP
NATIONAL WEATHER SERVICE PENDLETON OREGON
200 PM PDT MON JUL 25 2016

NOTE: FAIR INDICATES FEW OR NO CLOUDS BELOW 12,000 FEET WITH NO
SIGNIFICANT WEATHER AND/OR OBSTRUCTIONS TO VISIBILITY.

# INDICATES UNOFFICIAL STATION AND DATA

WAZ520-252210-
EAST SLOPES OF WASHINGTON CASCADES

CITY            SKY/WX      TMP DP  RH  WIND    PRES   REMARKS
#CLE ELUM HS    N/A         86  50  29  W7      29.95F
#CLE ELUM 2NW   N/A         86  49  28  W5      N/A
#GLENWOOD       N/A         90  62  39  SW3     29.89F HX 90
#MANASTASH CYN  N/A         85  55  36  W1      30.02S
#NELSON 3SW     N/A         83  55  38  S2      30.08F
#NILE           N/A         92  53  27  S1      29.17F HX 90
#RONALD 2NW     N/A         85  N/A N/A NW1     30.10F
#TEANAWAY 4NE   N/A         91  55  30  S5      N/A    HX 89
#TROUT LAKE 1NE N/A         88  61  41  E1      29.88F
#TROUT LAKE 1E  N/A         92  65  41  CALM    29.96  HX 94
$$

WAZ521-252210-
SIMCOE HIGHLANDS

CITY            SKY/WX      TMP DP  RH  WIND    PRES   REMARKS
#CENTERVILLE 1SWN/A         91  55  30  SW7     29.84F HX 89
#GOLDENDALE 1NE N/A         90  31  12  S1      N/A    HX 86
#GOLDENDALE 4W  N/A         93  60  33  SW6     29.99F HX 93
#GOODNOE HILLS  N/A         95  52  24  NE3     29.87S HX 92
#LYLE 6NE       N/A         82  59  46  S8      29.87F
$$

WAZ026-252210-
KITTITAS VALLEY

CITY            SKY/WX      TMP DP  RH  WIND    PRES   REMARKS
ELLENSBURG AP   SUNNY       94  52  24  SE7     29.98F HX 91
#ELLENSBURG CWU N/A         91  55  30  S2      29.84F HX 89
#ELLENSBURG 3NE N/A         88  58  36  CALM    29.98F
#ELLENSBURG     N/A         99  55  23  N1      N/A    HX 97
#ELLENSBURG 1E  N/A         91  N/A N/A CALM    N/A
#KITTITAS 4N    N/A         93  60  33  SW1     30.02F HX 93
#KITTITAS 3S    N/A         86  62  45  CALM    29.87F
#THORP 6N       N/A         88  50  27  SE3     29.90F
$$

WAZ027-252210-
YAKIMA VALLEY

CITY            SKY/WX      TMP DP  RH  WIND    PRES   REMARKS
SUNNYSIDE AP    SUNNY       92  51  25  E3      29.93F HX 89
YAKIMA AIRPORT  SUNNY       97  48  19  S7      29.94F HX 94
YAKIMA-VAGABOND N/A         95  45  18  SW7     29.93F HX 91
#DONALD 2NE     N/A         96  20   6  CALM    29.93F HX 91
#GRANDVIEW      N/A         91  49  24  W1      29.90F HX 88
#MABTON         N/A         91  59  34  CALM    29.92F HX 90
#NACHES 2SW     N/A         89  62  41  E1      30.00F
#TERRACE HTS    N/A         93  56  29  CALM    29.85F HX 91
#WEST VALLEY    N/A         91  53  28  CALM    29.86F HX 89
#W YAKIMA       N/A         92  52  26  SE3     29.87F HX 89
#WHITE SWAN 5E  N/A         91  60  36  NE5     29.88F HX 91
#WILEY CITY 3W  N/A         92  48  22  CALM    29.93F HX 89
$$

WAZ028-252210-
LOWER COLUMBIA BASIN...WASHINGTON

CITY            SKY/WX      TMP DP  RH  WIND    PRES   REMARKS
HANFORD         MOSUNNY     96  43  16  SW5     29.92S HX 92
PASCO           SUNNY       95  44  17  W5      29.91F HX 91
RICHLAND AWOS   SUNNY       98  46  17  E6      29.91F HX 94
#BENTON CITY    N/A         92  51  25  NE1     29.79F HX 89
#CONNELL 5N     N/A         93  50  23  SW5     29.89F HX 90
#CONNELL 5NW    N/A         91  54  29  NW2     29.86F HX 89
#ELTOPIA 6NW    N/A         91  56  31  CALM    28.92F HX 89
#KAHLOTUS       N/A         92  46  21  E5      29.88F HX 88
#KENNEWICK 3S   N/A         93  56  29  CALM    29.89F HX 91
#PATERSON       N/A         94  48  21  W3      29.88F HX 91
#SAGEMOOR 2W    N/A         91  59  34  N1      29.75F HX 90
#TOUCHET 2S     N/A         94  57  29  NW1     29.87F HX 93
#WEST PASCO     N/A         96  58  28  N1      29.89F HX 95
$$

WAZ029-252210-
FOOTHILLS OF THE BLUES...WASHINGTON

CITY            SKY/WX      TMP DP  RH  WIND    PRES   REMARKS
WALLA WALLA AP  SUNNY       94  43  17  VRB5    29.94F HX 90
#CLYDE 6NW      N/A         93  47  21  W7      29.87F HX 89
#DAYTON SCHOOL  N/A         92  42  18  E6      29.97F HX 88
#LOWDEN 2SE     N/A         94  54  26  W3      29.87F HX 92
#PLEASANT VIEW 1N/A         93  45  19  NW2     29.91F HX 89
#PRESCOTT       N/A         95  51  23  CALM    29.86F HX 92
#WHITMAN COLLEGEN/A         91  51  26  CALM    29.93F HX 88
#WAITSBURG 5S   N/A         95  50  22  W1      29.96F HX 92
#WAITSBURG 8N   N/A         100 33  10  N6      29.89F HX 95
#WALLA WALLA U  N/A         94  53  25  S6      29.88F HX 91
#WHITMAN MISSIONN/A         93  59  32  CALM    29.89F HX 92
$$

WAZ030-252210-
BLUE MOUNTAINS...WASHINGTON

CITY            SKY/WX      TMP DP  RH  WIND    PRES   REMARKS
#DIXIE 5SE      N/A         84  46  27  W7      29.99F
$$

ORZ009-041-WAZ024-252210-
COLUMBIA RIVER GORGE

CITY            SKY/WX      TMP DP  RH  WIND    PRES   REMARKS
HOOD RIVER AP   SUNNY       86  57  37  NW8     29.95F
THE DALLES AP   SUNNY       93  55  28  NW16    29.89F HX 91
#ARLINGTON AIRPON/A         94  47  20  E2      29.89F HX 90
#LYLE           N/A         85  61  45  W10     29.91F
#MARYHILL 2W    N/A         92  52  26  CALM    N/A    HX 89
#MOSIER 1S      N/A         85  48  28  NW12    29.94F
#MURDOCK        N/A         86  62  45  NW13    29.84F
#RUFUS DOT      N/A         93  49  22  NW8     N/A    HX 90
#SMITHVILLE     N/A         91  58  33  NW14    29.91F HX 90

$$

ORZ510-252210-
NORTH CENTRAL OREGON

CITY            SKY/WX      TMP DP  RH  WIND    PRES   REMARKS
#ANTELOPE       N/A         87  49  27  E3      29.71F
#CHENOWITH 1W   N/A         83  56  40  W14     N/A
#COW CYN RST AREN/A         86  N/A N/A NE5     N/A
#DUFUR 9E       N/A         86  49  28  N8      29.92F
#GRASS VALLEY 1SN/A         92  48  22  E3      29.96F HX 89
#KENT DOT       N/A         90  48  24  N7      N/A    HX 87
#SHANIKO 5WSW   N/A         86  46  25  N6      N/A
#SHANIKO 4NW    N/A         83  59  44  N10     30.10F
#TYGH VALLEY 2NEN/A         93  54  27  N6      29.85F HX 91
#WAPANITIA AIRPON/A         92  49  23  N7      29.88F HX 89
#WASCO DOT      N/A         95  57  28  SW3     N/A    HX 94
#WASCO 5NE      N/A         94  55  27  N1      29.88F HX 92
$$

ORZ511-252210-
CENTRAL OREGON

CITY            SKY/WX      TMP DP  RH  WIND    PRES   REMARKS
BEND AIRPORT    SUNNY       86  37  18  VRB6    30.06F
MADRAS AIRPORT  SUNNY       95  39  14  N3      30.05S HX 91
PRINEVILLE AP   SUNNY       90  41  18  W10     30.05F HX 86
REDMOND AIRPORT SUNNY       91  32  12  NW8     30.04F HX 87
#ASHWOOD SCHOOL N/A         90  41  18  N2      29.97F HX 86
#BEND 1SW       N/A         86  43  22  E1      N/A
#BEND-AWBREY    N/A         87  46  24  NE2     29.99F
#CULVER         N/A         88  43  21  N5      29.82F
#CULVER 8W      N/A         89  26  10  NW3     30.04F
#MADRAS 4S      N/A         88  25  10  NW3     30.08F
#POWELL BUTTE 3EN/A         81  46  29  W5      N/A
#POWELL BUTTE   N/A         90  49  25  W2      30.00F HX 87
#PRINEVILLE 3N  N/A         90  45  21  SW2     29.91F HX 86
#WARM SPRINGS   N/A         93  51  24  CALM    29.93F HX 90

$$


ORZ509-252210-
EAST SLOPES OF OREGON CASCADES

CITY            SKY/WX      TMP DP  RH  WIND    PRES   REMARKS
SISTERS AWOS    N/A         88  41  19  VRB7    30.02F
#CAMP SHERMAN   N/A         96  44  17  CALM    29.93F HX 92
#LA PINE DOT    N/A         89  30  12  W1      N/A
#LA PINE 4NW    N/A         87  47  25  CALM    29.90F
#LAVA BUTTE DOT N/A         88  46  23  CALM    N/A
#SISTERS AIRPOR N/A         86  53  32  N3      30.17S
#SISTERS ODOT   N/A         86  N/A N/A N3      N/A
#SISTERS 3N     N/A         86  45  24  E2      30.03F
#SUNRIVER       N/A         89  43  20  W1      29.89F
#SUTTLE LK DOT  N/A         81  48  32  W5      N/A
#TUMALO 3W      N/A         85  43  23  N5      29.74F
#WANOGA BUTTE D N/A         74  37  26  SE8     N/A

$$

ORZ044-252210-
LOWER COLUMBIA BASIN...OREGON

CITY            SKY/WX      TMP DP  RH  WIND    PRES   REMARKS
HERMISTON       SUNNY       97  45  17  VRB6    29.92F HX 93
#BOARDMAN 8SW   N/A         94  52  24  N3      29.88F HX 91
#ECHO 8SW       N/A         94  53  25  N5      29.93F HX 91
#I-84 EX 198 DOTN/A         90  56  32  E6      N/A    HX 88
#UMATILLA       N/A         96  48  20  CALM    29.82F HX 93
$$

ORZ507-252210-
NORTHERN FOOTHILLS OF THE BLUES

CITY            SKY/WX      TMP DP  RH  WIND    PRES   REMARKS
PENDLETON AIRPT SUNNY       95  42  16  N9      29.96F HX 91
#ADAMS 3WNW     N/A         91  46  21  E7      29.86F HX 87
#ATHENA         N/A         89  45  22  NW1     29.92F
#CAYUSE         N/A         91  48  23  NW3     29.86F HX 88
#HELIX SCHOOL   N/A         89  47  24  CALM    29.90F
#HELIX 3N       N/A         89  43  20  N1      29.97F
#HOLDMAN 5SE    N/A         92  48  22  NW2     29.95F HX 89
#HOLDMAN 6E     N/A         91  46  21  S3      29.70F HX 87
#M-F GROVE ELEM N/A         90  46  22  CALM    29.93F HX 87
#M-FREEWATER 5SEN/A         91  57  32  NW3     29.95F HX 90
#PENDLETON DNTN N/A         97  51  21  W2      29.95F HX 94
#PDT AQUATIC CTRN/A         93  50  23  CALM    29.77F HX 90
#PDT SUNRIDGE   N/A         94  48  21  CALM    29.95F HX 91
#PENDLETON 7NW  N/A         90  57  33  CALM    31.91S HX 89
#PILOT ROCK 1S  N/A         90  45  21  N6      29.98F HX 86
#PILOT ROCK     N/A         92  46  21  SE1     29.99F HX 88
#TUTUILLA       N/A         94  45  19  CALM    29.91F HX 90
#UMAPINE 2E     N/A         92  57  31  CALM    29.90F HX 91
#WESTON SCHOOL  N/A         87  42  21  SE5     29.83F

$$

ORZ508-252210-
SOUTHERN FOOTHILLS OF THE BLUES

CITY            SKY/WX      TMP DP  RH  WIND    PRES   REMARKS
LEXINGTON       SUNNY       93  43  18  VRB7    30.00F HX 89
#AJAX           N/A         89  45  22  CALM    27.75F
#CONDON 5W      N/A         84  41  22  N9      30.04F
#HEPPNER EOC    N/A         91  46  21  NW5     29.82F HX 87
#HEPPNER 4NE    N/A         86  45  24  N5      29.88F
#LEXINGTON 2SE  N/A         93  47  21  W9      29.93F HX 89
#RUGGS 5NE      N/A         92  44  19  N3      30.20S HX 88
#RUGGS 2SW      N/A         88  43  21  NE6     29.90F

$$

ORZ502-503-252210-
BLUE MOUNTAINS

CITY            SKY/WX      TMP DP  RH  WIND    PRES   REMARKS
MEACHAM         SUNNY       84  34  17  N6      30.10F
#BATTLE MTN DOT N/A         82  48  31  N2      N/A
#CUTSFORTH PARK N/A         86  45  24  NE1     29.88F
#GREENHORN 9SW  N/A         93  43  18  W5      30.04F HX 89
#HARDMAN 10S    N/A         85  43  23  N1      29.99F
#HEPPNER 15SE   N/A         86  44  23  N3      25.64S
#LADD CYN SMT   N/A         86  48  27  N10     N/A
#LADD CREEK ODOTN/A         87  53  31  NE10    N/A
#LONG CREEK HS  N/A         86  40  20  CALM    N/A
#N POWDER DOT   N/A         87  54  32  NE9     N/A
#PIKES PEAK     N/A         82  48  31  N1      27.99S
#TOLLGATE       N/A         76  49  39  E2      30.03S
#TROY SCHOOL    N/A         97  55  25  E3      29.71F HX 95
#UKIAH          N/A         85  47  27  NW5     29.83F
#WESTON 4E      N/A         85  49  29  CALM    29.86F
$$

ORZ505-252210-
JOHN DAY BASIN

CITY            SKY/WX      TMP DP  RH  WIND    PRES   REMARKS
JOHN DAY        SUNNY       93  37  14  W7      30.04F HX 89
#DAYVILLE SCHOOLN/A         94  37  14  W5      29.93F HX 90
#MITCHELL       N/A         90  53  28  CALM    30.19F HX 88
#MITCHELL 8NW   N/A         87  38  18  NE1     30.05F
#MONUMENT HS    N/A         93  40  16  SW1     29.83F HX 89
#MT. VERNON 5SE N/A         90  38  16  W3      30.02F HX 86
#SPRAY SCHOOL   N/A         96  N/A N/A CALM    N/A
$$

ORZ506-252210-
OCHOCO AND JOHN DAY HIGHLANDS

CITY            SKY/WX      TMP DP  RH  WIND    PRES   REMARKS
#BUCK CREEK DOT N/A         89  37  16  W5      N/A
#HORSE RIDGE DO N/A         84  33  16  W8      N/A
#KEYES SMT DOT  N/A         85  44  24  W3      N/A
#PAULINA SCHOOL N/A         89  33  14  SW8     N/A
#PINE MTN OBS   N/A         73  40  30  NW7     N/A
#SENECA         N/A         87  N/A N/A NW2     N/A
#SENECA 9NW     N/A         91  40  17  VRB1    29.82F HX 87
$$

ORZ049-252210-
GRANDE RONDE VALLEY

CITY            SKY/WX      TMP DP  RH  WIND    PRES   REMARKS
LA GRANDE       SUNNY       91  46  21  N7      30.01F HX 87
#COVE           N/A         89  55  32  NW2     30.06F
#COVE SCHOOL    N/A         90  49  25  CALM    30.04F HX 87
#COVE 6NW       N/A         88  48  25  N1      29.90F
#ELGIN 3N       N/A         92  44  19  S3      29.99F HX 88
#ELGIN 1E       N/A         92  46  21  CALM    N/A    HX 88
#IMBLER SCHOOL  N/A         88  42  20  SE1     29.97F
#ISLAND CITY 4N N/A         83  64  53  CALM    30.03S
#LADD CYN DOT   N/A         90  56  32  NE3     N/A    HX 88
#UNION 1S       N/A         88  49  26  NW6     29.78F
$$

ORZ050-252210-
WALLOWA COUNTY

CITY            SKY/WX      TMP DP  RH  WIND    PRES   REMARKS
JOSEPH AIRPORT  SUNNY       86  41  21  N6      N/A
#ENTERPRISE AP  N/A         49  29  46  CALM    30.02F
#ENTERPRISE HS  N/A         86  52  31  CALM    30.07F
#IMNAHA SCHOOL  N/A         94  45  19  N5      29.95F HX 90
#IMNAHA 10S     N/A         92  49  23  NE5     30.01F HX 89
#JOSEPH 3N      N/A         84  45  26  W1      30.11S
#JOSEPH 3W      N/A         82  50  33  E1      29.98F
#LOSTINE        N/A         88  42  20  N1      29.69F
#LOSTINE 3SE    N/A         86  43  22  N7      30.04F
#MT HOWARD 8000 N/A         66  42  42  N5      30.42R
#PROMISE 1S     N/A         84  51  32  N6      29.98F
#WALLOWA SCHOOL N/A         91  46  21  N2      29.99F HX 87



$$



USA.gov is the U.S. government's official web portal to all federal, state and local government web resources and services.